This demonstration page uses our WeatherBlox Daily Observations layout. Learn more.

39.92423, -83.80882

Hourly Observations for June 30, 2016

Temp ( °F °C ) Dew Point ( °F °C ) Humidity (%) Winds ( mph kmh ) Pressure ( in mb ) Visibility ( mi km ) Precip ( " mm )
12:56 am 00:56 Clear 58 14.4 51 10.5 78 78 Calm 30.08 1019 10 16.0934 0 0
1:56 am 01:56 Clear 59 15 51 10.5 75 75 Calm 30.08 1019 10 16.0934 0 0
2:56 am 02:56 Clear 56 13.3 51 10.5 83 83 E 3 6 30.07 1018 10 16.0934 0 0
3:56 am 03:56 Clear 55 12.7 52 11.1 90 90 Calm 30.07 1018 10 16.0934 0 0
4:56 am 04:56 Clear 52 11.1 50 10 93 93 Calm 30.07 1018 10 16.0934 0 0
5:56 am 05:56 Clear 52 11.1 50 10 93 93 Calm 30.07 1018 10 16.0934 0 0
6:56 am 06:56 Sunny 55 12.7 52 11.1 90 90 Calm 30.08 1019 10 16.0934 0 0
7:56 am 07:56 Sunny 58 14.4 56 13.3 93 93 Calm 30.09 1019 10 16.0934 0 0
8:56 am 08:56 Sunny 67 19.4 57 13.8 70 70 Calm 30.08 1019 10 16.0934 0 0
9:56 am 09:56 Sunny 73 22.7 54 12.2 52 52 SSE 6 9 30.08 1019 10 16.0934 0 0
10:56 am 10:56 Sunny 75 23.8 48 8.8 39 39 SSE 6 9 30.08 1019 10 16.0934 0 0
11:56 am 11:56 Mostly Sunny 75 23.8 49 9.4 40 40 VRB 5 7 30.07 1018 10 16.0934 0 0
12:56 pm 12:56 Sunny 79 26.1 51 10.5 38 38 ENE 7 11 30.05 1018 10 16.0934 0 0
1:56 pm 13:56 Sunny 79 26.1 49 9.4 35 35 VRB 3 6 30.04 1017 10 16.0934 0 0
2:56 pm 14:56 Sunny 80 26.6 50 10 35 35 W 7 11 30.03 1017 10 16.0934 0 0
3:56 pm 15:56 Mostly Sunny 82 27.7 51 10.5 34 34 SW 6 9 30.01 1016 10 16.0934 0 0
4:56 pm 16:56 Mostly Sunny 79 26.1 52 11.1 39 39 SSW 7 11 30.02 1017 10 16.0934 0 0
5:56 pm 17:56 Sunny 78 25.5 55 12.7 45 45 S 3 6 30.01 1016 10 16.0934 0 0
6:56 pm 18:56 Sunny 77 25 55 12.7 46 46 S 5 7 29.99 1016 10 16.0934 0 0
7:56 pm 19:56 Sunny 76 24.4 55 12.7 48 48 S 5 7 29.99 1016 10 16.0934 0 0
8:56 pm 20:56 Sunny 74 23.3 56 13.3 54 54 S 6 9 29.98 1015 10 16.0934 0 0
9:56 pm 21:56 Clear 71 21.6 58 14.4 64 64 Calm 29.99 1016 10 16.0934 0 0
10:56 pm 22:56 Clear 68 20 59 15 73 73 Calm 30 1016 10 16.0934 0 0
11:56 pm 23:56 Mostly Cloudy 67 19.4 57 13.8 70 70 S 5 7 29.99 1016 10 16.0934 0 0

Powered by AerisWeather